Tracking 23752 objects as of 24-Oct-2021
HD Live streaming from Space Station
objects crossing your sky now

BREEZE-M DEB

Track BREEZE-M DEB now!
10-day predictions


NORAD ID: 37200
Int'l Code: 2008-011E
Perigee: 1,152.3 km
Apogee: 26,529.5 km
Inclination: 49.1 °
Period: 476.6 minutes
Semi major axis: 20211 km
RCS: 1.4407 m2 (large)
Launch date: March 14, 2008
Source: Commonwealth of Independent States (former USSR) (CIS)
Launch site: TYURATAM MISSILE AND SPACE COMPLEX (TTMTR)

Note: This is SATELLITE DEBRIS
aabbcc
Your satellite tracking list
Your tracking list is empty




NASA's NSSDC Master Catalog

Two Line Element Set (TLE):
1 37200U 08011E   21295.30487321 -.00000087  00000-0  00000+0 0  9994
2 37200  49.1356   3.8368 6277780 328.5830  36.6088  3.02129165121617
Source of the keplerian elements: AFSPC